Flag for Portugal Weather past 2 weeks in Ponta Delgada, Azores, Portugal

Now
63 °F

Scattered clouds.


Feels Like: 63 °F
Forecast: 60 / 64 °F
Wind: 13 mph from South

Location: Ponta Delgada / Nordela Acores

Current Time: Mar 27, 2015 at 5:04:33 PM

Latest Report: Mar 27, 2015 at 4:00 PM


Visibility: N/A

Pressure: 30.36 "Hg

Humidity: 73%

Dew point: 54 °F

Location of Ponta DelgadaLocation

Historic Weather in Ponta Delgada — Graph

°F

Ponta Delgada temperature yesterday

Maximum temperature yesterday: 61 °F (at 10:30 AM)
Minimum temperature yesterday: 57 °F (at 12:00 AM)
Average temperature yesterday: 59 °F

Past Weeks' High & Low Weather Summary

 TemperatureHumidityPressure
High63 °F (Mar 13, 11:30 AM)100% (Mar 15, 5:30 PM)30.48 "Hg (Mar 15, 5:30 PM)
Low45 °F (Mar 18, 4:30 AM)44% (Mar 16, 4:49 PM)30.01 "Hg (Mar 15, 3:30 PM)
Average57 °F73%30.32 "Hg
* Reported Mar 12 3:00 PM — Mar 27 3:30 PM, Ponta Delgada, Weather by CustomWeather, © 2015

Note: Actual official high and low records may vary slightly from our data, if they occured in-between our weather recording intervals... More about our weather records

Advertising

Ponta Delgada weather history for previous 24 hours

 ConditionsComfort  
Time TempWeatherWind HumidityBarometerVisibility
3:30 PM
Fri, Mar 27
63 °FPartly sunny.15 mph73%30.36 "HgN/A
3:00 PM63 °FPartly sunny.14 mph73%30.36 "HgN/A
2:30 PM63 °FPartly sunny.14 mph73%30.36 "HgN/A
2:00 PM63 °FPartly sunny.14 mph73%30.36 "HgN/A
1:30 PM63 °FPartly sunny.15 mph68%30.36 "HgN/A
1:00 PM63 °FPartly sunny.15 mph77%30.39 "HgN/A
12:30 PM63 °FPartly sunny.16 mph77%30.39 "HgN/A
12:00 PM61 °FPartly sunny.15 mph77%30.39 "HgN/A
11:30 AM61 °FPartly sunny.14 mph72%30.39 "HgN/A
11:00 AM61 °FPartly sunny.13 mph83%30.39 "HgN/A
10:30 AM61 °FPartly sunny.12 mph83%30.39 "HgN/A
10:00 AM61 °FPartly sunny.14 mph77%30.39 "HgN/A
9:30 AM59 °FPartly sunny.13 mph82%30.39 "HgN/A
9:00 AM59 °FPartly sunny.15 mph82%30.36 "HgN/A
8:30 AM59 °FPartly sunny.16 mph77%30.36 "HgN/A
8:00 AM59 °FPartly sunny.13 mph82%30.36 "HgN/A
7:30 AM59 °FPartly sunny.17 mph82%30.36 "HgN/A
7:00 AM61 °FPartly sunny.14 mph68%30.36 "HgN/A
6:30 AM59 °FPassing clouds.14 mph77%30.36 "HgN/A
6:00 AM59 °FPassing clouds.15 mph82%30.36 "HgN/A
5:30 AM59 °FPassing clouds.13 mph72%30.33 "HgN/A
5:00 AM61 °FPassing clouds.14 mph68%30.33 "HgN/A
4:30 AM61 °FPassing clouds.14 mph63%30.33 "HgN/A
4:00 AM61 °FPassing clouds.13 mph68%30.33 "HgN/A
3:30 AM59 °FPassing clouds.13 mph77%30.33 "HgN/A
3:00 AM59 °FPassing clouds.14 mph82%30.36 "HgN/A
2:30 AM59 °FPassing clouds.15 mph82%30.36 "HgN/A
2:00 AM59 °FPassing clouds.14 mph82%30.36 "HgN/A
1:30 AM59 °FPassing clouds.15 mph82%30.36 "HgN/A
1:00 AM59 °FPassing clouds.14 mph82%30.36 "HgN/A
12:30 AM59 °FPassing clouds.15 mph82%30.36 "HgN/A
12:00 AM59 °FPassing clouds.13 mph82%30.39 "HgN/A
11:00 PM
Thu, Mar 26
59 °FPassing clouds.14 mph82%30.36 "HgN/A
10:30 PM59 °FPassing clouds.13 mph77%30.39 "HgN/A
10:00 PM59 °FPassing clouds.14 mph77%30.39 "HgN/A
9:30 PM59 °FPassing clouds.13 mph77%30.36 "HgN/A
9:00 PM59 °FPassing clouds.12 mph82%30.36 "HgN/A
8:00 PM59 °FPassing clouds.16 mph72%30.36 "HgN/A
7:30 PM59 °FPassing clouds.12 mph77%30.33 "HgN/A
7:00 PM59 °FPassing clouds.14 mph77%30.33 "HgN/A
6:30 PM59 °FPartly sunny.13 mph77%30.33 "HgN/A
6:00 PM59 °FPartly sunny.10 mph77%30.33 "HgN/A
5:30 PM59 °FPartly sunny.12 mph77%30.33 "HgN/A
5:00 PM61 °FPartly sunny.13 mph72%30.33 "HgN/A
Weather by CustomWeather, © 2015

See weather overviewHow to use our weather pages